Regional Weather Roundup
Issued by NWS

Home | Current Version | Previous Version | Text Only | Print | Product List | Glossary Off
Versions: 1 2 3 4 5 6 7 8 9 10 11 12 13 14 15 16 17 18 19 20 21 22 23 24 25 26 27 28 29 30 31 32 33 34 35 36 37 38 39 40 41 42 43 44 45 46 47 48 49 50

000
ASUS45 KABQ 261501
RWRNM
NEW MEXICO REGIONAL WEATHER ROUNDUP
NATIONAL WEATHER SERVICE ALBUQUERQUE NM
900 AM MDT TUE JUL 26 2016

NOTE: "FAIR" MEANS FEW OR NO CLOUDS BELOW 12,000 FEET AGL WITH NO
       SIGNIFICANT WEATHER OR OBSTRUCTIONS TO VISION.

      THIS PRODUCT IS RELEASED AS TWO VERSIONS.  ONE VERSION NEAR
      THE TOP OF THE HOUR CONTAINING PRELIMINARY DATA FROM ALBUQUERQUE
      AND OTHER STATIONS.  A FINAL VERSION WITH ADDITIONAL DATA IS
      ISSUED ABOUT 10 MINUTES AFTER THE HOUR.

NMZ501-503-504-510>518-261600-
NORTHWEST PLATEAU/NORTHCENTRAL MOUNTAINS

CITY           SKY/WX    TMP DP  RH WIND       PRES   REMARKS
FARMINGTON     FAIR      74  53  48 SE10      30.26R
LOS ALAMOS     FAIR      67  53  59 CALM      30.40F
SANTA FE       FAIR      70  56  61 VRB3      30.34S
TAOS           FAIR      64  45  48 CALM      30.41S
ANGEL FIRE     FAIR      54  51  89 CALM      30.48F

$$
NMZ402-403-502-505>509-261600-
WESTCENTRAL MOUNTAINS/SOUTHWEST MOUNTAINS

CITY           SKY/WX    TMP DP  RH WIND       PRES   REMARKS
GALLUP         FAIR      70  53  54 CALM      30.34R
GRANTS         CLOUDY    69  54  60 SE6       30.37S
SILVER CITY    FAIR      80  53  39 E12       30.26R

$$
NMZ407-409-411-412-261600-
SOUTHERN DESERTS

CITY           SKY/WX    TMP DP  RH WIND       PRES   REMARKS
LORDSBURG      FAIR      81  59  47 SE9       30.16S
DEMING         FAIR      83  58  42 NE15      30.17R
LAS CRUCES     FAIR      84  52  33 E6        30.19S
HOLLOMAN AFB   DRIZZLE   70  63  78 NE8       30.17F
ALAMOGORDO     FAIR      73  59  60 N9        30.19F
T OR C         FAIR      76  60  57 CALM      30.22F

$$
NMZ519>523-261600-
CENTRAL VALLEYS/CENTRAL HIGHLANDS

CITY           SKY/WX    TMP DP  RH WIND       PRES   REMARKS
ALBUQUERQUE    PTSUNNY   74  58  57 NW8       30.28S
DOUBLE EAGLE   PTSUNNY   70  57  64 W3        30.33R
MORIARTY ARPT  FAIR      69  56  63 CALM      30.34F
CLINES CORNERS FAIR      68  55  63 W13       30.38S
BELEN          PTSUNNY   73  55  54 S7        30.28S
SOCORRO        PTSUNNY   74  57  54 NE3       30.24F

$$
NMZ524>526-539-540-261600-
SOUTHCENTRAL MOUNTAINS

CITY           SKY/WX    TMP DP  RH WIND       PRES   REMARKS
RUIDOSO          N/A     64  54  68 CALM      30.38F

$$
NMZ527>531-261600-
NORTHEAST HIGHLANDS/NORTHEAST PLAINS

CITY           SKY/WX    TMP DP  RH WIND       PRES   REMARKS
LAS VEGAS      FAIR      70  53  54 SW7       30.35F
RATON          FAIR      60  53  77 CALM      30.31S
CLAYTON        FAIR      79  54  41 S9        30.22S

$$
NMZ532>537-261600-
EASTCENTRAL PLAINS

CITY           SKY/WX    TMP DP  RH WIND       PRES   REMARKS
TUCUMCARI      FAIR      77  63  61 W9        30.18R
CANNON AFB     NOT AVBL
CLOVIS AIRPORT FAIR      77  59  53 NW10      30.19F

$$
NMZ028-029-538-261600-
SOUTHEAST PLAINS

CITY           SKY/WX    TMP DP  RH WIND       PRES   REMARKS
ROSWELL        FAIR      75  63  66 NE9       30.16S
ARTESIA        FAIR      75  63  64 N12       30.16S
CARLSBAD       FAIR      80  60  50 NW9       30.11F
HOBBS          SUNNY     84  55  37 NE9       30.14F


$$



USA.gov is the U.S. government's official web portal to all federal, state and local government web resources and services.